This demonstration page uses our WeatherBlox Daily Observations layout. Learn more.

Left ArrowRight Arrow

53.62937, 11.41316

Hourly Observations for June 25, 2022

Temp ( °F °C ) Dew Point ( °F °C ) Humidity (%) Winds ( mph kmh ) Pressure ( in mb ) Visibility ( mi km ) Precip ( " mm )
12:20 am 00:20 Mostly Clear 66 19 61 16 83 83 ESE 3 6 29.77 1008 30 48 N/A
12:50 am 00:50 Partly Cloudy 63 17 61 16 94 94 VRB 2 4 29.77 1008 30 48 N/A
1:20 am 01:20 Mostly Clear 63 17 61 16 94 94 W 3 6 29.77 1008 30 48 N/A
1:50 am 01:50 Mostly Clear 63 17 61 16 94 94 Calm 29.77 1008 30 48 N/A
2:20 am 02:20 Mostly Clear 61 16 59 15 94 94 VRB 2 4 29.77 1008 30 48 N/A
2:50 am 02:50 Mostly Clear 63 17 61 16 94 94 VRB 2 4 29.77 1008 30 48 N/A
3:20 am 03:20 Mostly Clear 61 16 61 16 100 100 VRB 2 4 29.80 1009 1 1 N/A
3:50 am 03:50 Partly Cloudy 61 16 59 15 94 94 VRB 1 2 29.80 1009 3 5 N/A
4:20 am 04:20 Mostly Cloudy 61 16 61 16 100 100 WSW 6 9 29.80 1009 4 6 N/A
4:50 am 04:50 Mostly Cloudy 63 17 61 16 94 94 VRB 3 6 29.80 1009 30 48 N/A
5:20 am 05:20 Mostly Sunny 61 16 59 15 94 94 ENE 3 6 29.80 1009 4 6 N/A
5:50 am 05:50 Mostly Sunny 61 16 61 16 100 100 VRB 1 2 29.80 1009 2 3 N/A
6:20 am 06:20 Mostly Sunny 63 17 61 16 94 94 VRB 2 4 29.82 1010 6 9 N/A
6:50 am 06:50 Mostly Sunny 64 18 63 17 94 94 WSW 3 6 29.82 1010 7 11 N/A
7:20 am 07:20 Mostly Sunny 64 18 63 17 94 94 WSW 5 7 29.82 1010 7 11 N/A
7:50 am 07:50 Mostly Sunny 66 19 63 17 88 88 VRB 2 4 29.85 1011 7 11 N/A
8:20 am 08:20 Mostly Sunny 68 20 64 18 88 88 WNW 3 6 29.85 1011 7 11 N/A
8:50 am 08:50 Mostly Sunny 72 22 64 18 78 78 VRB 2 4 29.85 1011 7 11 N/A
9:20 am 09:20 Mostly Sunny 72 22 63 17 73 73 NW 5 7 29.88 1012 30 48 N/A
9:50 am 09:50 Partly Cloudy 72 22 63 17 73 73 VRB 3 6 29.88 1012 30 48 N/A
10:20 am 10:20 Partly Cloudy 75 24 63 17 65 65 VRB 3 6 29.88 1012 30 48 N/A
10:50 am 10:50 Mostly Sunny 75 24 63 17 65 65 VRB 3 6 29.88 1012 30 48 N/A
11:20 am 11:20 Partly Cloudy 77 25 61 16 57 57 NW 5 7 29.88 1012 30 48 N/A
11:50 am 11:50 Partly Cloudy 75 24 63 17 65 65 ENE 5 7 29.88 1012 30 48 N/A
12:20 pm 12:20 Partly Cloudy 75 24 63 17 65 65 VRB 1 2 29.88 1012 30 48 N/A
12:50 pm 12:50 Mostly Sunny 79 26 61 16 54 54 VRB 5 7 29.85 1011 30 48 N/A
1:20 pm 13:20 Partly Cloudy 81 27 59 15 48 48 N 5 7 29.85 1011 30 48 N/A
1:50 pm 13:50 Partly Cloudy 79 26 57 14 48 48 VRB 3 6 29.88 1012 30 48 N/A
2:20 pm 14:20 Mostly Sunny 81 27 61 16 51 51 VRB 2 4 29.88 1012 30 48 N/A
2:50 pm 14:50 Mostly Cloudy 81 27 61 16 51 51 VRB 5 7 29.85 1011 30 48 N/A
3:20 pm 15:20 Mostly Sunny 79 26 63 17 58 58 NNE 7 11 29.85 1011 30 48 N/A
3:50 pm 15:50 Mostly Sunny 81 27 61 16 51 51 VRB 3 6 29.85 1011 7 11 N/A
4:20 pm 16:20 Partly Cloudy 79 26 61 16 54 54 NW 3 6 29.88 1012 30 48 N/A
4:50 pm 16:50 Mostly Sunny 82 28 63 17 51 51 NNW 3 6 29.88 1012 7 11 N/A
5:20 pm 17:20 Mostly Sunny 81 27 63 17 54 54 ENE 7 11 29.85 1011 7 11 N/A
5:50 pm 17:50 Partly Cloudy with Showers Nearby 79 26 63 17 58 58 NE 9 15 29.88 1012 30 48 N/A
6:20 pm 18:20 Partly Cloudy with Showers Nearby 77 25 61 16 57 57 ENE 10 17 29.88 1012 30 48 N/A
6:50 pm 18:50 Mostly Cloudy with Thunderstorms 72 22 63 17 73 73 E 9 15 29.88 1012 30 48 N/A
7:20 pm 19:20 Partly Cloudy with Showers Nearby 70 21 66 19 88 88 ENE 7 11 29.88 1012 30 48 N/A
7:50 pm 19:50 Partly Cloudy with Showers Nearby 70 21 66 19 88 88 VRB 2 4 29.88 1012 30 48 N/A
8:20 pm 20:20 Mostly Sunny 70 21 66 19 88 88 Calm 29.88 1012 7 11 N/A
8:50 pm 20:50 Mostly Sunny 70 21 68 20 94 94 Calm 29.88 1012 7 11 N/A
9:20 pm 21:20 Mostly Sunny 70 21 66 19 88 88 VRB 2 4 29.88 1012 7 11 N/A
9:50 pm 21:50 Mostly Sunny 70 21 68 20 94 94 VRB 2 4 29.88 1012 7 11 N/A
10:20 pm 22:20 Mostly Cloudy 68 20 66 19 94 94 E 5 7 29.91 1013 30 48 N/A
10:50 pm 22:50 Mostly Clear 66 19 66 19 100 100 ENE 3 6 29.91 1013 1 2 N/A
11:20 pm 23:20 Mostly Clear 66 19 64 18 94 94 E 3 6 29.88 1012 4 6 N/A
11:50 pm 23:50 Mostly Clear 66 19 64 18 94 94 E 5 7 29.91 1013 30 48 N/A

Powered by AerisWeather